Time,TemperatureF,DewpointF,PressureIn,WindDirection,WindDirectionDegrees,WindSpeedMPH,WindSpeedGustMPH,Humidity,HourlyPrecipIn,Conditions,Clouds,dailyrainin,SoftwareType,DateUTC
2013-02-20 00:00:00,26.0,20.0,29.75,WSW,250,26.0,-999.0,76,-99.99,,,-99.99,,2013-02-20 00:00:00,
2013-02-20 00:21:00,26.0,20.0,29.75,WSW,250,26.0,-999.0,76,-99.99,,,-99.99,,2013-02-20 00:21:00,
2013-02-20 00:31:00,26.0,20.0,29.75,WSW,250,26.0,-999.0,76,-99.99,,,-99.99,,2013-02-20 00:31:00,
2013-02-20 00:41:00,26.0,20.0,29.75,WSW,250,26.0,-999.0,76,-99.99,,,-99.99,,2013-02-20 00:41:00,
2013-02-20 00:51:00,26.0,20.0,29.75,WSW,250,26.0,-999.0,76,-99.99,,,-99.99,,2013-02-20 00:51:00,
2013-02-20 01:00:00,26.0,21.0,29.76,WSW,240,24.0,-999.0,81,-99.99,,,-99.99,,2013-02-20 01:00:00,
2013-02-20 01:21:00,26.0,21.0,29.76,WSW,240,24.0,-999.0,81,-99.99,,,-99.99,,2013-02-20 01:21:00,
2013-02-20 01:31:00,26.0,21.0,29.76,WSW,240,24.0,-999.0,81,-99.99,,,-99.99,,2013-02-20 01:31:00,
2013-02-20 01:41:00,26.0,21.0,29.76,WSW,240,24.0,-999.0,81,-99.99,,,-99.99,,2013-02-20 01:41:00,
2013-02-20 01:51:00,26.0,21.0,29.76,WSW,240,24.0,-999.0,81,-99.99,,,-99.99,,2013-02-20 01:51:00,
2013-02-20 02:00:00,25.0,19.0,29.78,WSW,250,23.0,-999.0,77,-99.99,,,-99.99,,2013-02-20 02:00:00,
2013-02-20 02:21:00,25.0,19.0,29.78,WSW,250,23.0,-999.0,77,-99.99,,,-99.99,,2013-02-20 02:21:00,
2013-02-20 02:31:00,25.0,19.0,29.78,WSW,250,23.0,-999.0,77,-99.99,,,-99.99,,2013-02-20 02:31:00,
2013-02-20 02:41:00,25.0,19.0,29.78,WSW,250,23.0,-999.0,77,-99.99,,,-99.99,,2013-02-20 02:41:00,
2013-02-20 02:52:00,25.0,19.0,29.78,WSW,250,23.0,-999.0,77,-99.99,,,-99.99,,2013-02-20 02:52:00,
2013-02-20 03:00:00,25.0,18.0,29.80,WSW,240,24.0,-999.0,75,-99.99,,,-99.99,,2013-02-20 03:00:00,
2013-02-20 03:21:00,25.0,18.0,29.80,WSW,240,24.0,-999.0,75,-99.99,,,-99.99,,2013-02-20 03:21:00,
2013-02-20 03:31:00,25.0,18.0,29.80,WSW,240,24.0,-999.0,75,-99.99,,,-99.99,,2013-02-20 03:31:00,
2013-02-20 03:41:00,25.0,18.0,29.80,WSW,240,24.0,-999.0,75,-99.99,,,-99.99,,2013-02-20 03:41:00,
2013-02-20 03:51:00,25.0,18.0,29.80,WSW,240,24.0,-999.0,75,-99.99,,,-99.99,,2013-02-20 03:51:00,
2013-02-20 04:00:00,24.0,18.0,29.80,WSW,250,25.0,-999.0,77,-99.99,,,-99.99,,2013-02-20 04:00:00,
2013-02-20 04:21:00,24.0,18.0,29.80,WSW,250,25.0,-999.0,77,-99.99,,,-99.99,,2013-02-20 04:21:00,
2013-02-20 04:31:00,24.0,18.0,29.80,WSW,250,25.0,-999.0,77,-99.99,,,-99.99,,2013-02-20 04:31:00,
2013-02-20 04:41:00,24.0,18.0,29.80,WSW,250,25.0,-999.0,77,-99.99,,,-99.99,,2013-02-20 04:41:00,
2013-02-20 04:51:00,24.0,18.0,29.80,WSW,250,25.0,-999.0,77,-99.99,,,-99.99,,2013-02-20 04:51:00,
2013-02-20 05:00:00,24.0,18.0,29.80,WSW,250,24.0,-999.0,78,-99.99,,,-99.99,,2013-02-20 05:00:00,
2013-02-20 05:22:00,24.0,18.0,29.80,WSW,250,24.0,-999.0,78,-99.99,,,-99.99,,2013-02-20 05:22:00,
2013-02-20 05:31:00,24.0,18.0,29.80,WSW,250,24.0,-999.0,78,-99.99,,,-99.99,,2013-02-20 05:31:00,
2013-02-20 05:42:00,24.0,18.0,29.80,WSW,250,24.0,-999.0,78,-99.99,,,-99.99,,2013-02-20 05:42:00,
2013-02-20 05:52:00,24.0,18.0,29.80,WSW,250,24.0,-999.0,78,-99.99,,,-99.99,,2013-02-20 05:52:00,
2013-02-20 06:00:00,23.0,18.0,29.81,WSW,250,23.0,-999.0,81,-99.99,,,-99.99,,2013-02-20 06:00:00,
2013-02-20 06:21:00,23.0,18.0,29.81,WSW,250,23.0,-999.0,81,-99.99,,,-99.99,,2013-02-20 06:21:00,
2013-02-20 06:31:00,23.0,18.0,29.81,WSW,250,23.0,-999.0,81,-99.99,,,-99.99,,2013-02-20 06:31:00,
2013-02-20 06:41:00,23.0,18.0,29.81,WSW,250,23.0,-999.0,81,-99.99,,,-99.99,,2013-02-20 06:41:00,
2013-02-20 06:51:00,23.0,18.0,29.81,WSW,250,23.0,-999.0,81,-99.99,,,-99.99,,2013-02-20 06:51:00,
2013-02-20 07:00:00,22.0,13.0,29.82,West,270,29.0,-999.0,67,-99.99,,,-99.99,,2013-02-20 07:00:00,
2013-02-20 07:21:00,22.0,13.0,29.82,West,270,29.0,-999.0,67,-99.99,,,-99.99,,2013-02-20 07:21:00,
2013-02-20 07:31:00,22.0,13.0,29.82,West,270,29.0,-999.0,67,-99.99,,,-99.99,,2013-02-20 07:31:00,
2013-02-20 07:41:00,22.0,13.0,29.82,West,270,29.0,-999.0,67,-99.99,,,-99.99,,2013-02-20 07:41:00,
2013-02-20 07:51:00,22.0,13.0,29.82,West,270,29.0,-999.0,67,-99.99,,,-99.99,,2013-02-20 07:51:00,
2013-02-20 08:00:00,21.0,14.0,29.83,West,270,24.0,-999.0,71,-99.99,,,-99.99,,2013-02-20 08:00:00,
2013-02-20 08:21:00,21.0,14.0,29.83,West,270,24.0,-999.0,71,-99.99,,,-99.99,,2013-02-20 08:21:00,
2013-02-20 08:31:00,21.0,14.0,29.83,West,270,24.0,-999.0,71,-99.99,,,-99.99,,2013-02-20 08:31:00,
2013-02-20 08:41:00,21.0,14.0,29.83,West,270,24.0,-999.0,71,-99.99,,,-99.99,,2013-02-20 08:41:00,
2013-02-20 08:51:00,21.0,14.0,29.83,West,270,24.0,-999.0,71,-99.99,,,-99.99,,2013-02-20 08:51:00,
2013-02-20 09:00:00,20.0,13.0,29.85,West,270,23.0,-999.0,70,-99.99,,,-99.99,,2013-02-20 09:00:00,
2013-02-20 09:21:00,20.0,13.0,29.85,West,270,23.0,-999.0,70,-99.99,,,-99.99,,2013-02-20 09:21:00,
2013-02-20 09:31:00,20.0,13.0,29.85,West,270,23.0,-999.0,70,-99.99,,,-99.99,,2013-02-20 09:31:00,
2013-02-20 09:41:00,20.0,13.0,29.85,West,270,23.0,-999.0,70,-99.99,,,-99.99,,2013-02-20 09:41:00,
2013-02-20 09:51:00,20.0,13.0,29.85,West,270,23.0,-999.0,70,-99.99,,,-99.99,,2013-02-20 09:51:00,
2013-02-20 10:00:00,19.0,14.0,29.87,West,270,23.0,-999.0,80,-99.99,,,-99.99,,2013-02-20 10:00:00,
2013-02-20 10:21:00,19.0,14.0,29.87,West,270,23.0,-999.0,80,-99.99,,,-99.99,,2013-02-20 10:21:00,
2013-02-20 10:31:00,19.0,14.0,29.87,West,270,23.0,-999.0,80,-99.99,,,-99.99,,2013-02-20 10:31:00,
2013-02-20 10:41:00,19.0,14.0,29.87,West,270,23.0,-999.0,80,-99.99,,,-99.99,,2013-02-20 10:41:00,
2013-02-20 10:51:00,19.0,14.0,29.87,West,270,23.0,-999.0,80,-99.99,,,-99.99,,2013-02-20 10:51:00,
2013-02-20 11:00:00,20.0,13.0,29.87,West,270,25.0,-999.0,72,-99.99,,,-99.99,,2013-02-20 11:00:00,
2013-02-20 11:21:00,20.0,13.0,29.87,West,270,25.0,-999.0,72,-99.99,,,-99.99,,2013-02-20 11:21:00,
2013-02-20 11:31:00,20.0,13.0,29.87,West,270,25.0,-999.0,72,-99.99,,,-99.99,,2013-02-20 11:31:00,
2013-02-20 11:41:00,20.0,13.0,29.87,West,270,25.0,-999.0,72,-99.99,,,-99.99,,2013-02-20 11:41:00,
2013-02-20 11:52:00,20.0,13.0,29.87,West,270,25.0,-999.0,72,-99.99,,,-99.99,,2013-02-20 11:52:00,
2013-02-20 12:00:00,19.0,12.0,29.90,West,270,18.0,-999.0,74,-99.99,,,-99.99,,2013-02-20 12:00:00,
2013-02-20 12:21:00,19.0,12.0,29.90,West,270,18.0,-999.0,74,-99.99,,,-99.99,,2013-02-20 12:21:00,
2013-02-20 12:31:00,19.0,12.0,29.90,West,270,18.0,-999.0,74,-99.99,,,-99.99,,2013-02-20 12:31:00,
2013-02-20 12:41:00,19.0,12.0,29.90,West,270,18.0,-999.0,74,-99.99,,,-99.99,,2013-02-20 12:41:00,
2013-02-20 12:52:00,19.0,12.0,29.90,West,270,18.0,-999.0,74,-99.99,,,-99.99,,2013-02-20 12:52:00,
2013-02-20 13:00:00,19.0,8.0,29.92,West,270,21.0,-999.0,63,-99.99,,,-99.99,,2013-02-20 13:00:00,
2013-02-20 13:22:00,19.0,8.0,29.92,West,270,21.0,-999.0,63,-99.99,,,-99.99,,2013-02-20 13:22:00,
2013-02-20 13:31:00,19.0,8.0,29.92,West,270,21.0,-999.0,63,-99.99,,,-99.99,,2013-02-20 13:31:00,
2013-02-20 13:42:00,19.0,8.0,29.92,West,270,21.0,-999.0,63,-99.99,,,-99.99,,2013-02-20 13:42:00,
2013-02-20 13:51:00,19.0,8.0,29.92,West,270,21.0,-999.0,63,-99.99,,,-99.99,,2013-02-20 13:51:00,
2013-02-20 14:00:00,20.0,10.0,29.95,West,280,13.0,-999.0,64,-99.99,,,-99.99,,2013-02-20 14:00:00,
2013-02-20 14:21:00,20.0,10.0,29.95,West,280,13.0,-999.0,64,-99.99,,,-99.99,,2013-02-20 14:21:00,
2013-02-20 14:32:00,20.0,10.0,29.95,West,280,13.0,-999.0,64,-99.99,,,-99.99,,2013-02-20 14:32:00,
2013-02-20 14:42:00,20.0,10.0,29.95,West,280,13.0,-999.0,64,-99.99,,,-99.99,,2013-02-20 14:42:00,
2013-02-20 14:52:00,20.0,10.0,29.95,West,280,13.0,-999.0,64,-99.99,,,-99.99,,2013-02-20 14:52:00,
2013-02-20 15:00:00,20.0,10.0,29.96,West,280,24.0,-999.0,64,-99.99,,,-99.99,,2013-02-20 15:00:00,
2013-02-20 15:22:00,20.0,10.0,29.96,West,280,24.0,-999.0,64,-99.99,,,-99.99,,2013-02-20 15:22:00,
2013-02-20 15:31:00,20.0,10.0,29.96,West,280,24.0,-999.0,64,-99.99,,,-99.99,,2013-02-20 15:31:00,
2013-02-20 15:41:00,20.0,10.0,29.96,West,280,24.0,-999.0,64,-99.99,,,-99.99,,2013-02-20 15:41:00,
2013-02-20 15:51:00,20.0,10.0,29.96,West,280,24.0,-999.0,64,-99.99,,,-99.99,,2013-02-20 15:51:00,
2013-02-20 16:00:00,21.0,11.0,29.98,WNW,300,14.0,-999.0,64,-99.99,,,-99.99,,2013-02-20 16:00:00,
2013-02-20 16:21:00,21.0,11.0,29.98,WNW,300,14.0,-999.0,64,-99.99,,,-99.99,,2013-02-20 16:21:00,
2013-02-20 16:32:00,21.0,11.0,29.98,WNW,300,14.0,-999.0,64,-99.99,,,-99.99,,2013-02-20 16:32:00,
2013-02-20 16:41:00,21.0,11.0,29.98,WNW,300,14.0,-999.0,64,-99.99,,,-99.99,,2013-02-20 16:41:00,
2013-02-20 16:51:00,21.0,11.0,29.98,WNW,300,14.0,-999.0,64,-99.99,,,-99.99,,2013-02-20 16:51:00,
2013-02-20 17:00:00,20.0,10.0,29.97,ESE,120,3.0,-999.0,64,-99.99,,,-99.99,,2013-02-20 17:00:00,
2013-02-20 17:21:00,20.0,10.0,29.97,ESE,120,3.0,-999.0,64,-99.99,,,-99.99,,2013-02-20 17:21:00,
2013-02-20 17:32:00,20.0,10.0,29.97,ESE,120,3.0,-999.0,64,-99.99,,,-99.99,,2013-02-20 17:32:00,
2013-02-20 17:41:00,20.0,10.0,29.97,ESE,120,3.0,-999.0,64,-99.99,,,-99.99,,2013-02-20 17:41:00,
2013-02-20 17:51:00,20.0,10.0,29.97,ESE,120,3.0,-999.0,64,-99.99,,,-99.99,,2013-02-20 17:51:00,
2013-02-20 18:00:00,20.0,12.0,30.00,West,280,18.0,-999.0,69,-99.99,,,-99.99,,2013-02-20 18:00:00,
2013-02-20 18:21:00,20.0,12.0,30.00,West,280,18.0,-999.0,69,-99.99,,,-99.99,,2013-02-20 18:21:00,
2013-02-20 18:31:00,20.0,12.0,30.00,West,280,18.0,-999.0,69,-99.99,,,-99.99,,2013-02-20 18:31:00,
2013-02-20 18:41:00,20.0,12.0,30.00,West,280,18.0,-999.0,69,-99.99,,,-99.99,,2013-02-20 18:41:00,
2013-02-20 18:51:00,20.0,12.0,30.00,West,280,18.0,-999.0,69,-99.99,,,-99.99,,2013-02-20 18:51:00,
2013-02-20 23:00:00,20.0,11.0,30.12,West,280,16.0,-999.0,66,-99.99,,,-99.99,,2013-02-20 23:00:00,
2013-02-20 23:21:00,20.0,11.0,30.12,West,280,16.0,-999.0,66,-99.99,,,-99.99,,2013-02-20 23:21:00,
2013-02-20 23:31:00,20.0,11.0,30.12,West,280,16.0,-999.0,66,-99.99,,,-99.99,,2013-02-20 23:31:00,
2013-02-20 23:42:00,20.0,11.0,30.12,West,280,16.0,-999.0,66,-99.99,,,-99.99,,2013-02-20 23:42:00,
2013-02-20 23:51:00,20.0,11.0,30.12,West,280,16.0,-999.0,66,-99.99,,,-99.99,,2013-02-20 23:51:00,